This is the latest recevied weather packets stored in our database for station/object KM4LTG. If no packets are shown the sender has not sent any weather packets the latest 10 day(s).
| Time | Temp. | Humidity | Pressure | Rain* | Wind** | Luminosity | Snow |
|---|---|---|---|---|---|---|---|
| 1778015430 | 28.33° C | 65% | 1015.2 hPa | 0 mm | - | - | - |
| 1778014065 | 28.89° C | 62% | 1015.2 hPa | 0 mm | - | - | - |
| 1778013775 | 28.89° C | 63% | 1015.2 hPa | 0 mm | - | - | - |
| 1778013474 | 28.89° C | 63% | 1015.3 hPa | 0 mm | - | - | - |
| 1778013220 | 29.44° C | 61% | 1015.3 hPa | 0 mm | - | - | - |
| 1778012920 | 28.89° C | 62% | 1015.3 hPa | 0 mm | - | - | - |
| 1778012675 | 28.89° C | 62% | 1015.4 hPa | 0 mm | - | - | - |
| 1778012385 | 28.89° C | 61% | 1015.3 hPa | 0 mm | - | - | - |
| 1778011600 | 28.89° C | 62% | 1015.5 hPa | 0 mm | - | - | - |
| 1778011350 | 28.33° C | 63% | 1015.6 hPa | 0 mm | - | - | - |
| 1778011105 | 28.33° C | 63% | 1015.6 hPa | 0 mm | - | - | - |
| 1778010865 | 29.44° C | 62% | 1015.6 hPa | 0 mm | - | - | - |
| 1778010335 | 30° C | 61% | 1015.5 hPa | 0 mm | - | - | - |
| 1778009820 | 30° C | 58% | 1015.5 hPa | 0 mm | - | - | - |
| 1778009520 | 30° C | 59% | 1015.7 hPa | 0 mm | - | - | - |
| 1778009265 | 29.44° C | 60% | 1015.7 hPa | 0 mm | - | - | - |
| 1778008990 | 29.44° C | 60% | 1015.7 hPa | 0 mm | - | - | - |
| 1778008715 | 29.44° C | 59% | 1015.9 hPa | 0 mm | - | - | - |
| 1778008440 | 30.56° C | 57% | 1015.7 hPa | 0 mm | - | - | - |
| 1778008192 | 30° C | 45% | 1015.7 hPa | 0 mm | - | - | - |
| 1778007895 | 30° C | 45% | 1015.8 hPa | 0 mm | - | - | - |
| 1778006240 | 30° C | 48% | 1016.1 hPa | 0 mm | - | - | - |
| 1778005974 | 30° C | 47% | 1016.1 hPa | 0 mm | - | - | - |
| 1778005725 | 30° C | 47% | 1016 hPa | 0 mm | - | - | - |
| 1778005471 | 30° C | 48% | 1016.1 hPa | 0 mm | - | - | - |
* Rain latest hour (hover to see other rain measurements)
** Current wind speed in m/s (hover to see current wind gust speed)